Offutt Air Force Base, NE

5:43 AM CDT on August 24, 2016 (GMT -0500)
Offutt Air Force Base

Weather History for KOFF - May, 2013

Change the Weather History Date:

Thursday, May 16, 2013

  Actual Average Record
Temperature  
Mean Temperature 70 °F -  
Max Temperature 85 °F 71 °F 87 °F (1997)
Min Temperature 56 °F 51 °F 30 °F (2014)
Cooling Degree Days 5    
Growing Degree Days 20 (Base 50)    
Moisture  
Dew Point 57 °F    
Average Humidity 62    
Maximum Humidity 82    
Minimum Humidity 43    
Precipitation  
Precipitation 0.00 in - - ()
Sea Level Pressure  
Sea Level Pressure 29.82 in    
Wind  
Wind Speed 5 mph (SE)    
Max Wind Speed 15 mph    
Max Gust Speed -    
Visibility 10 miles    
Events      
Averages and records for this station are not official NWS values.
T = Trace of Precipitation, MM = Missing Value Source: NWS Daily Summary

Daily Weather History Graph

Daily Weather History Graph

Search for Another Location

Airport or City:

Trip Planner

Search our weather history database for the weather conditions in past years. The results will help you decide how hot, cold, wet, or windy it might be!

Date:

Astronomy

May. 16, 2013 Rise Set
Actual Time 6:04 AM CDT 8:36 PM CDT
Civil Twilight 5:32 AM CDT 9:07 PM CDT
Nautical Twilight 4:53 AM CDT 9:47 PM CDT
Astronomical Twilight 4:09 AM CDT 10:31 PM CDT
Moon 11:39 AM CDT (5/16) 12:56 AM CDT (5/16)
Length of Visible Light 15h 35m
Length of Day
14h 31m
Waxing Crescent, 36% of the Moon is Illuminated
May 16
Waxing Crescent
May 17
First Quarter
May 24
Full
May 31
Last Quarter
Jun 8
New

Hourly Weather History & Observations

Time (CDT) Temp. Heat Index Dew Point Humidity Pressure Visibility Wind Dir Wind Speed Gust Speed Precip Events Conditions
12:58 AM 65.8 °F - 47.7 °F 52% 29.85 in 10.0 mi East 4.6 mph - N/A   Clear
1:58 AM 63.7 °F - 49.5 °F 60% 29.83 in 10.0 mi East 4.6 mph - N/A   Clear
2:58 AM 63.3 °F - 50.0 °F 62% 29.83 in 10.0 mi East 5.8 mph - N/A   Clear
3:58 AM 59.2 °F - 49.3 °F 70% 29.83 in 10.0 mi ENE 4.6 mph - N/A   Clear
4:58 AM 57.4 °F - 51.1 °F 79% 29.83 in 10.0 mi Calm Calm - N/A   Clear
5:58 AM 56.8 °F - 51.3 °F 82% 29.84 in 10.0 mi North 1.2 mph - N/A   Clear
6:58 AM 59.9 °F - 53.4 °F 79% 29.86 in 10.0 mi Calm Calm - N/A   Mostly Cloudy
7:58 AM 63.9 °F - 55.4 °F 74% 29.88 in 10.0 mi ENE 4.6 mph - N/A   Scattered Clouds
8:58 AM 68.7 °F - 61.9 °F 79% 29.87 in 10.0 mi ESE 2.3 mph - N/A   Mostly Cloudy
9:58 AM 73.4 °F - 62.1 °F 68% 29.85 in 10.0 mi Variable 5.8 mph - N/A   Clear
10:58 AM 76.8 °F - 62.8 °F 62% 29.85 in 10.0 mi East 10.4 mph - N/A   Clear
11:58 AM 75.7 °F - 63.9 °F 66% 29.85 in 10.0 mi SSE 15.0 mph - N/A   Mostly Cloudy
12:58 PM 79.9 °F - 64.2 °F 59% 29.81 in 10.0 mi South 11.5 mph - N/A   Partly Cloudy
1:58 PM 81.9 °F 83.1 °F 63.1 °F 53% 29.79 in 10.0 mi South 8.1 mph - N/A   Clear
2:58 PM 83.7 °F 84.1 °F 61.5 °F 47% 29.79 in 10.0 mi SSW 9.2 mph - N/A   Scattered Clouds
3:58 PM 84.4 °F 84.2 °F 59.5 °F 43% 29.78 in 10.0 mi South 5.8 mph - N/A   Scattered Clouds
4:58 PM 83.1 °F 83.3 °F 60.3 °F 46% 29.77 in 10.0 mi South 10.4 mph - N/A   Partly Cloudy
5:58 PM 83.5 °F 83.6 °F 60.1 °F 45% 29.75 in 10.0 mi SSW 9.2 mph - N/A   Clear
6:58 PM 80.8 °F 81.2 °F 59.0 °F 47% 29.75 in 10.0 mi South 10.4 mph - N/A   Mostly Cloudy
7:58 PM 79.7 °F - 58.6 °F 48% 29.78 in 10.0 mi South 6.9 mph - N/A   Partly Cloudy
8:58 PM 75.7 °F - 57.9 °F 54% 29.80 in 10.0 mi South 5.8 mph - N/A   Clear
9:58 PM 73.2 °F - 58.5 °F 60% 29.80 in 10.0 mi SSE 5.8 mph - N/A   Scattered Clouds
10:58 PM 71.2 °F - 58.8 °F 65% 29.81 in 10.0 mi South 4.6 mph - N/A   Clear
11:58 PM 63.7 °F - 57.9 °F 81% 29.83 in 10.0 mi SSE 2.3 mph - N/A   Partly Cloudy